Location: Erskine
(52.3216°N, 112.8806°W)
Time: 23:26:31
(UTC+00:00)

AO-85 - Visible Passes

Search period start: 01 December 2023 00:00
Search period end: 11 December 2023 00:00
Orbit: 516 x 753 km, 64.8° (Epoch: 04 January)

Date Brightness Start Highest point End Pass type
(mag) Time Alt. Az. Time Alt. Az. Time Alt. Az.
01 Dec ? 01:03:29 10° NW 01:06:08 16° N 01:07:57 13° NNE visible
01 Dec ? 02:44:27 10° NNW 02:45:14 13° NNW 02:45:14 13° NNW visible
02 Dec ? 01:23:53 10° NW 01:26:31 16° N 01:27:15 15° NNE visible
02 Dec ? 03:04:13 10° NNW 03:04:32 12° NNW 03:04:32 12° NNW visible
03 Dec ? 00:02:28 10° WNW 00:05:19 18° NNW 00:08:17 10° NNE visible
03 Dec ? 01:43:59 10° NNW 01:46:33 17° N 01:46:33 17° N visible
04 Dec ? 00:23:02 10° NW 00:25:40 16° N 00:28:25 10° NE visible
04 Dec ? 02:03:51 10° NNW 02:05:53 19° N 02:05:53 19° N visible
05 Dec ? 00:43:21 10° NW 00:46:03 16° N 00:47:55 13° NNE visible
05 Dec ? 02:23:36 10° NNW 02:25:13 19° NNW 02:25:13 19° NNW visible
06 Dec ? 01:03:23 10° NNW 01:06:24 18° NNE 01:07:17 17° NNE visible
06 Dec ? 02:43:17 10° NW 02:44:35 18° NNW 02:44:35 18° NNW visible
07 Dec ? 01:23:12 10° NNW 01:26:40 22° NNE 01:26:41 22° NNE visible
07 Dec ? 03:02:59 10° NW 03:03:59 17° NW 03:03:59 17° NW visible
08 Dec ? 00:02:45 10° NNW 00:05:30 16° N 00:08:22 10° NE visible
08 Dec ? 01:42:55 10° NNW 01:46:08 29° NNE 01:46:08 29° NNE visible
08 Dec ? 03:22:46 10° NW 03:23:26 14° NW 03:23:26 14° NW visible
09 Dec ? 00:22:43 10° NNW 00:25:49 19° NNE 00:28:19 13° NE visible
09 Dec ? 02:02:35 10° NW 02:05:38 36° N 02:05:38 36° N visible
09 Dec ? 03:42:41 10° NW 03:42:56 11° NW 03:42:56 11° NW visible
10 Dec ? 00:42:29 10° NNW 00:46:03 24° NNE 00:47:54 18° ENE visible
10 Dec ? 02:22:16 10° NW 02:25:13 41° NNW 02:25:13 41° NNW visible
